When you browse on this site, cookies collect data to enhance your experience and personalize the content and advertising you see.
Visit our Privacy Policy to learn more. By continuing to use the site, you agree to this use of cookies and data.
  • Em Portugal
  • Lista de países
  • Para 7 dias
  • Temperatura da água
  • Mapas de satélite
  • Mapa do tempo
  • Widgets de tempo
  • user-avatar
    Iniciar Sessão

    Previsão horária em Bregenz

    Hoje, 22 Janeiro, Terça-feira

    Tempo Temperatura Precipitação Vento Pressão Humidade
    00:00 -9°C° 0 mm 1 m/s 642 mmHg 91%
    01:00 -10°C° 0 mm 1 m/s 641 mmHg 89%
    02:00 -10°C° 0 mm 1 m/s 641 mmHg 87%
    03:00 -11°C° 0 mm 1 m/s 640 mmHg 86%
    04:00 -13°C° 0 mm 2 m/s 640 mmHg 85%
    05:00 -13°C° 0 mm 2 m/s 639 mmHg 83%
    06:00 -13°C° 0 mm 2 m/s 639 mmHg 82%
    07:00 -12°C° 0 mm 1 m/s 638 mmHg 81%
    08:00 -10°C° 0 mm 1 m/s 638 mmHg 79%
    09:00 -9°C° 0 mm 1 m/s 638 mmHg 78%
    10:00 -8°C° 0 mm 1 m/s 638 mmHg 76%
    11:00 -7°C° 0 mm 0 m/s 637 mmHg 74%
    12:00 -5°C° 0 mm 0 m/s 637 mmHg 72%
    13:00 -5°C° 0 mm 0 m/s 637 mmHg 71%
    14:00 -5°C° 0 mm 0 m/s 636 mmHg 74%
    15:00 -5°C° 0 mm 0 m/s 636 mmHg 77%
    16:00 -6°C° 0 mm 0 m/s 635 mmHg 81%
    17:00 -7°C° 0 mm 1 m/s 634 mmHg 82%
    18:00 -9°C° 0 mm 1 m/s 634 mmHg 83%
    19:00 -10°C° 0 mm 1 m/s 633 mmHg 84%
    20:00 -10°C° 0 mm 1 m/s 633 mmHg 82%
    21:00 -11°C° 0 mm 1 m/s 632 mmHg 81%
    22:00 -11°C° 0 mm 1 m/s 632 mmHg 80%
    23:00 -11°C° 0 mm 1 m/s 632 mmHg 79%

    Amanhã, 23 Janeiro, Quarta-feira

    Tempo Temperatura Precipitação Vento Pressão Humidade
    00:00 -13°C° 0 mm 2 m/s 631 mmHg 78%
    01:00 -13°C° 0 mm 2 m/s 631 mmHg 77%
    02:00 -14°C° 0 mm 2 m/s 630 mmHg 76%
    03:00 -14°C° 0 mm 2 m/s 630 mmHg 75%
    04:00 -14°C° 0 mm 2 m/s 629 mmHg 75%
    05:00 -14°C° 0 mm 2 m/s 629 mmHg 74%
    06:00 -14°C° 0 mm 2 m/s 629 mmHg 73%
    07:00 -13°C° 0 mm 2 m/s 628 mmHg 73%
    08:00 -10°C° 0 mm 1 m/s 628 mmHg 72%
    09:00 -9°C° 0 mm 1 m/s 629 mmHg 71%
    10:00 -8°C° 0 mm 1 m/s 629 mmHg 70%
    11:00 -6°C° 0 mm 1 m/s 629 mmHg 67%
    12:00 -4°C° 0 mm 1 m/s 629 mmHg 64%
    13:00 -3°C° 0 mm 1 m/s 629 mmHg 61%
    14:00 -4°C° 0 mm 1 m/s 629 mmHg 67%
    15:00 -4°C° 0 mm 1 m/s 629 mmHg 73%
    16:00 -6°C° 0 mm 1 m/s 629 mmHg 80%
    17:00 -7°C° 0 mm 1 m/s 629 mmHg 82%
    18:00 -8°C° 0 mm 0 m/s 629 mmHg 85%
    19:00 -10°C° 0 mm 0 m/s 628 mmHg 88%
    20:00 -10°C° 0 mm 0 m/s 629 mmHg 88%
    21:00 -10°C° 0 mm 1 m/s 629 mmHg 88%
    22:00 -11°C° 0 mm 1 m/s 629 mmHg 88%
    23:00 -11°C° 0 mm 1 m/s 629 mmHg 87%

    Depois de amanhã, 24 Janeiro, Quinta-feira

    Tempo Temperatura Precipitação Vento Pressão Humidade
    00:00 -11°C° 0 mm 1 m/s 630 mmHg 87%
    01:00 -12°C° 0 mm 1 m/s 630 mmHg 87%
    02:00 -12°C° 0 mm 1 m/s 630 mmHg 86%
    03:00 -12°C° 0 mm 1 m/s 631 mmHg 85%
    04:00 -12°C° 0 mm 1 m/s 631 mmHg 85%
    05:00 -12°C° 0 mm 1 m/s 631 mmHg 84%
    06:00 -12°C° 0 mm 1 m/s 632 mmHg 84%
    07:00 -12°C° 0 mm 1 m/s 632 mmHg 83%
    08:00 -11°C° 0 mm 1 m/s 633 mmHg 82%
    09:00 -10°C° 0 mm 1 m/s 633 mmHg 81%
    10:00 -9°C° 0 mm 1 m/s 634 mmHg 80%
    11:00 -8°C° 0 mm 1 m/s 634 mmHg 80%
    12:00 -7°C° 0 mm 1 m/s 634 mmHg 81%
    13:00 -6°C° 0 mm 1 m/s 634 mmHg 81%
    14:00 -6°C° 0.1 mm 1 m/s 634 mmHg 83%
    15:00 -7°C° 0.1 mm 1 m/s 634 mmHg 84%
    16:00 -7°C° 0.1 mm 1 m/s 634 mmHg 85%
    17:00 -7°C° 0.1 mm 1 m/s 635 mmHg 88%
    18:00 -8°C° 0.1 mm 1 m/s 635 mmHg 90%
    19:00 -9°C° 0.1 mm 0 m/s 635 mmHg 93%
    20:00 -9°C° 0.1 mm 0 m/s 636 mmHg 93%
    21:00 -10°C° 0.1 mm 0 m/s 636 mmHg 93%
    22:00 -10°C° 0.1 mm 0 m/s 637 mmHg 94%
    23:00 -10°C° 0 mm 0 m/s 637 mmHg 94%

    25 Janeiro, Sexta-feira

    Tempo Temperatura Precipitação Vento Pressão Humidade
    00:00 -10°C° 0 mm 0 m/s 637 mmHg 94%
    01:00 -10°C° 0 mm 0 m/s 637 mmHg 94%
    02:00 -11°C° 0.1 mm 0 m/s 637 mmHg 94%
    03:00 -11°C° 0.1 mm 0 m/s 636 mmHg 94%
    04:00 -11°C° 0.1 mm 0 m/s 636 mmHg 94%
    05:00 -11°C° 0.1 mm 0 m/s 637 mmHg 93%
    06:00 -11°C° 0.1 mm 0 m/s 637 mmHg 93%
    07:00 -12°C° 0.1 mm 0 m/s 637 mmHg 93%
    08:00 -11°C° 0.1 mm 0 m/s 637 mmHg 91%
    09:00 -10°C° 0.1 mm 1 m/s 638 mmHg 90%
    10:00 -10°C° 0.1 mm 1 m/s 638 mmHg 88%
    11:00 -9°C° 0.1 mm 1 m/s 638 mmHg 87%
    12:00 -9°C° 0.1 mm 1 m/s 638 mmHg 85%
    13:00 -9°C° 0.1 mm 2 m/s 638 mmHg 84%
    14:00 -9°C° 0.1 mm 2 m/s 638 mmHg 85%
    15:00 -9°C° 0.1 mm 2 m/s 639 mmHg 86%
    16:00 -9°C° 0.1 mm 2 m/s 639 mmHg 87%
    17:00 -9°C° 0.1 mm 1 m/s 640 mmHg 90%
    18:00 -9°C° 0.1 mm 1 m/s 640 mmHg 92%
    19:00 -10°C° 0.1 mm 1 m/s 641 mmHg 94%
    20:00 -10°C° 0.1 mm 1 m/s 641 mmHg 95%
    21:00 -10°C° 0.1 mm 1 m/s 641 mmHg 95%
    22:00 -10°C° 0.1 mm 1 m/s 642 mmHg 95%
    23:00 -10°C° 0 mm 1 m/s 642 mmHg 95%

    26 Janeiro, Sábado

    Tempo Temperatura Precipitação Vento Pressão Humidade
    00:00 -11°C° 0 mm 1 m/s 642 mmHg 94%
    01:00 -11°C° 0 mm 1 m/s 642 mmHg 94%
    02:00 -11°C° 0 mm 1 m/s 642 mmHg 94%
    03:00 -12°C° 0 mm 1 m/s 642 mmHg 94%
    04:00 -12°C° 0 mm 1 m/s 642 mmHg 94%
    05:00 -12°C° 0 mm 1 m/s 642 mmHg 93%
    06:00 -12°C° 0 mm 1 m/s 642 mmHg 92%
    07:00 -13°C° 0 mm 1 m/s 642 mmHg 91%
    08:00 -12°C° 0 mm 1 m/s 642 mmHg 88%
    09:00 -11°C° 0 mm 1 m/s 642 mmHg 85%
    10:00 -10°C° 0 mm 0 m/s 642 mmHg 83%
    11:00 -9°C° 0 mm 1 m/s 642 mmHg 80%
    12:00 -8°C° 0 mm 1 m/s 642 mmHg 78%
    13:00 -7°C° 0 mm 1 m/s 642 mmHg 75%
    14:00 -7°C° 0 mm 1 m/s 641 mmHg 78%
    15:00 -7°C° 0 mm 1 m/s 641 mmHg 81%
    16:00 -7°C° 0 mm 1 m/s 641 mmHg 85%
    17:00 -9°C° 0 mm 1 m/s 640 mmHg 87%
    18:00 -10°C° 0 mm 1 m/s 640 mmHg 89%
    19:00 -11°C° 0 mm 1 m/s 640 mmHg 91%
    20:00 -12°C° 0 mm 1 m/s 640 mmHg 89%
    21:00 -12°C° 0 mm 1 m/s 640 mmHg 86%
    22:00 -14°C° 0 mm 2 m/s 639 mmHg 84%
    23:00 -14°C° 0 mm 2 m/s 639 mmHg 82%

    27 Janeiro, Domingo

    Tempo Temperatura Precipitação Vento Pressão Humidade
    00:00 -15°C° 0 mm 2 m/s 639 mmHg 79%
    01:00 -15°C° 0 mm 2 m/s 638 mmHg 76%
    02:00 -15°C° 0 mm 2 m/s 638 mmHg 74%
    03:00 -15°C° 0 mm 2 m/s 637 mmHg 72%
    04:00 -15°C° 0 mm 2 m/s 637 mmHg 70%
    05:00 -14°C° 0 mm 2 m/s 637 mmHg 69%
    06:00 -14°C° 0 mm 2 m/s 636 mmHg 67%
    07:00 -14°C° 0 mm 2 m/s 636 mmHg 66%
    08:00 -13°C° 0 mm 2 m/s 636 mmHg 65%
    09:00 -10°C° 0 mm 2 m/s 637 mmHg 65%
    10:00 -9°C° 0 mm 2 m/s 637 mmHg 64%
    11:00 -7°C° 0.2 mm 1 m/s 637 mmHg 69%
    12:00 -6°C° 0.2 mm 1 m/s 636 mmHg 75%
    13:00 -6°C° 0.2 mm 1 m/s 636 mmHg 80%
    14:00 -4°C° 0.4 mm 1 m/s 636 mmHg 84%
    15:00 -4°C° 0.4 mm 1 m/s 636 mmHg 88%
    16:00 -4°C° 0.4 mm 1 m/s 636 mmHg 92%
    17:00 -6°C° 0.2 mm 1 m/s 636 mmHg 93%
    18:00 -6°C° 0.2 mm 1 m/s 636 mmHg 94%
    19:00 -7°C° 0.2 mm 1 m/s 637 mmHg 95%
    20:00 -7°C° 0.1 mm 1 m/s 637 mmHg 95%
    21:00 -7°C° 0.1 mm 1 m/s 637 mmHg 94%
    22:00 -7°C° 0.1 mm 1 m/s 637 mmHg 94%
    23:00 -7°C° 0.3 mm 1 m/s 637 mmHg 94%
    Mostrar mais